Location: Agadir Irigdalene
(31.2522°N, 8.7797°W)
Time: 16:14:29
(UTC+00:00)

H-2A R/B - Pass Details

Date: 01 December 2020
Orbit: 578 x 654 km, 98.5° (Epoch: 26 January)

Event Time Altitude Azimuth Distance (km) Brightness Sun altitude
Rises 17:55:44 0° 6° (N) 2,858 5.2 -5.4°
Reaches altitude 10° 17:57:56 10° 1° (N) 1,963 4.4 -5.9°
Maximum altitude 18:02:04 51° 286° (WNW) 779 3.0 -6.7°
Drops below altitude 10° 18:06:16 10° 210° (SSW) 1,998 5.5 -7.5°
Sets 18:08:31 0° 205° (SSW) 2,913 6.3 -8.0°
